Regional Weather Roundup
Issued by NWS

Home | Current Version | Previous Version | Graphics & Text | Print | Product List | Glossary On
Versions: 1 2 3 4 5 6 7 8 9 10 11 12 13 14 15 16 17 18 19 20 21 22 23 24 25 26 27
000
ASUS45 KBOU 171610
RWRCO

WEATHER ROUNDUP FOR COLORADO
NATIONAL WEATHER SERVICE DENVER/BOULDER CO
900 AM MST WED JAN 17 2018

NOTE: "FAIR" INDICATES FEW OR NO CLOUDS BELOW 12000 FEET WITH NO
SIGNIFICANT WEATHER AND/OR OBSTRUCTIONS TO VISIBILITY.

COZ001>005-013-030-031-171700-
...NORTHWEST COLORADO...

CITY           SKY/WX    TMP DP  RH WIND       PRES   REMARKS
CRAIG          FAIR      10   3  73 CALM      30.44R
HAYDEN           N/A    N/A N/A N/A E12       30.43
MEEKER         CLOUDY    20  10  65 CALM      30.42R
RABBIT EARS PA FAIR      18  10  73 W12G17    30.36R WCI   5
STEAMBOAT SPGS FAIR       3  -1  83 CALM      30.43R
WALDEN         FAIR       9  -2  61 SE6       30.40R WCI  -1
$$

COZ006>008-011-171700-
...WEST CENTRAL VALLEYS...

CITY           SKY/WX    TMP DP  RH WIND       PRES   REMARKS
GRAND JUNCTION FAIR      26  13  57 SE10      30.44R WCI  16
MONTROSE       FAIR      21  11  65 S6        30.47R WCI  13
EAGLE          FAIR       6   0  76 NE3       30.54R
RIFLE          FAIR      19  12  74 CALM      30.47R
DELTA          FAIR      19  11  73 CALM      30.47R
NUCLA          FAIR      27   9  46 E3        30.44R
$$

COZ017>023-064>068-171700-
...SOUTHWEST COLORADO...

CITY           SKY/WX    TMP DP  RH WIND       PRES   REMARKS
DURANGO        FAIR      20  16  84 CALM      30.36R
CORTEZ         FAIR      25  18  74 CALM      30.38R
PAGOSA SPRINGS FAIR      22  19  87 CALM      30.35R
TELLURIDE      FAIR      22  -6  28 SE5       30.38R WCI  16
WOLF CREEK PAS FAIR      23 -24  11 N7        30.39R WCI  15
$$

COZ009-010-012-014-032>034-037-058>063-171700-
...CENTRAL COLORADO...

CITY           SKY/WX    TMP DP  RH WIND       PRES   REMARKS
ASPEN          FAIR      15   2  56 CALM      30.39R
BUENA VISTA    FAIR      20  -6  30 CALM      30.35R
COPPER MTN     NOT AVBL
BERTHOUD PASS  FAIR      12   1  62 NW13G21   30.36R WCI  -3
COTTONWOOD PAS   N/A     34 N/A N/A NW5       30.33R WCI  30
GUNNISON       FAIR       0  -4  83 CALM      30.48R
KREMMLING      FAIR       3  -4  72 CALM      30.52R
LEADVILLE      FAIR      19  -4  36 NE3       30.34R
MONARCH PASS   FAIR      27 -33   6 CALM      30.45R
SALIDA         FAIR      22  -4  30 CALM      30.43R
SUNLIGHT       FAIR      21   7  53 N5        30.42R WCI  15
WILKERSON PASS FAIR      28 -31   6 N5        30.36R WCI  23
$$

COZ069>075-171700-
...SAN LUIS VALLEY/SANGRE DE CRISTO MOUNTAINS...

CITY           SKY/WX    TMP DP  RH WIND       PRES   REMARKS
ALAMOSA        FAIR       9   4  80 CALM      30.38R
DEL NORTE      FAIR      18   2  51 W8        30.36S WCI   7
LA VETA PASS   FAIR      30   0  27 E6          N/A  WCI  24
SAGUACHE       FAIR      16   7  67 SE5       30.37R WCI   9
$$

COZ035-036-038>040-171700-
...NORTHERN COLORADO FRONT RANGE...

CITY           SKY/WX    TMP DP  RH WIND       PRES   REMARKS
DENVER INTL AP FAIR      26  11  52 SW8       30.27R WCI  18
DMNS CITY PARK NOT AVBL
AURORA         SUNNY     25   8  48 SW6       30.28R WCI  18
FRONT RANGE AP SUNNY     28  12  50 SW6       30.28R WCI  22
ERIE MUNI ARPT FAIR      21  16  81 CALM      30.35R
BOULDER MUN AP FAIR      28  16  59 CALM      30.28R
CENTENNIAL     FAIR      32   4  30 W5        30.27R WCI  27
BROOMFIELD     SUNNY     28  14  54 CALM      30.28R
FORT COLLINS   FAIR      17  14  88 CALM      30.29R
LONGMONT       FAIR      24  16  71 CALM      30.31R
$$

COZ041-046-047-076>085-087-088-171700-
...PIKES PEAK/PALMER DIVIDE AND SOUTHERN FOOTHILLS...

CITY           SKY/WX    TMP DP  RH WIND       PRES   REMARKS
COLO. SPRINGS  FAIR      38   1  21 N6        30.26R
A. F. ACADEMY  FAIR      30   1  28 N7        30.25R WCI  23
SCHRIEVER AFB  FAIR      42  -6  13 N7        30.26R
CHEYENNE MTN   FAIR      44  -9  10 E5        30.21R
ELLICOTT         N/A    N/A N/A N/A NE5       30.24R
FALCON         FAIR      42 -10  11 N6        30.27R
FORT CARSON    FAIR      34   4  27 N13       30.24R WCI  25
LIMON          FAIR      26  13  57 W8        30.27R WCI  18
MONUMENT HILL  FAIR      36   1  23 NW5       30.28R
CANON CITY     FAIR      37   5  25 W17       30.25R
WALSENBURG     FAIR      43   9  24 SW7       30.26R
TRINIDAD       FAIR      30  12  47 W12       30.27R WCI  20
$$

COZ042>045-048>051-090-091-171700-
...NORTHEAST COLORADO...

CITY           SKY/WX    TMP DP  RH WIND       PRES   REMARKS
GREELEY ARPT   FAIR      19  11  70 SW3       30.31R
AKRON          FAIR      18   9  68 W16       30.28R WCI   3
BURLINGTON     FAIR      25  13  60 W9        30.27R WCI  15
WRAY           FAIR      21  10  63 W9        30.30R WCI  11
YUMA           FAIR      23  10  58 W13       30.27R WCI  11
STERLING       FAIR      12   7  79 S10       30.29R WCI  -1
HOLYOKE        FAIR      25  12  58 CALM      30.29R
FORT MORGAN    FAIR      14   4  67 W7        30.30R WCI   3
$$

COZ086-089-092>099-171700-
...SOUTHEAST COLORADO...

CITY           SKY/WX    TMP DP  RH WIND       PRES   REMARKS
PUEBLO         FAIR      22  13  68 CALM      30.28R
LA JUNTA       FAIR      19   9  65 W7        30.30S WCI  10
LAMAR          FAIR      17   3  54 W8        30.32S WCI   7
SPRINGFIELD      N/A     30  18  60 CALM      30.29R
$$




USA.gov is the U.S. government's official web portal to all federal, state and local government web resources and services.